Regional Weather Roundup
Issued by NWS Midland/Odessa, TX

Home | Current Version | Previous Version | Text Only | Print | Product List | Glossary On
Versions: 1 2 3 4 5 6 7 8 9 10 11 12 13 14 15 16 17 18 19 20 21 22 23 24 25 26 27 28 29 30 31 32 33 34 35 36 37 38 39 40 41 42 43 44 45 46 47 48 49 50
000
ASUS44 KMAF 281010
RWRMAF
MIDLAND AREA WEATHER ROUNDUP
NATIONAL WEATHER SERVICE MIDLAND TX
400 AM CST FRI NOV 28 2014

...IN SOUTHWEST TEXAS AND SOUTHEAST NEW MEXICO...

CITY           SKY/WX    TMP DP  RH WIND       PRES   REMARKS
ALPINE         CLEAR     44  22  41 CALM      30.34S
ANDREWS        FAIR      43  33  69 SW9       30.22F WCI  38
ARTESIA        NOT AVBL
BIG SPRING     CLEAR     46  33  60 S12       30.25S
CARLSBAD       CLEAR     32  26  78 W3        30.20F
DRYDEN           N/A     43  36  76 N7        30.27F WCI  39
FORT STOCKTON  CLEAR     42  31  64 S14       30.23F WCI  35
GUAD PASS      NOT AVBL
HOBBS          PTCLDY    34  28  80 SW3       30.22F
MARFA          PTCLDY    28  21  74 N3        30.32F
MIDLAND AIRPK  CLEAR     47  35  62 S9        30.23S
MIDLAND INTL   CLEAR     44  34  67 SW8       30.22F WCI  39
ODESSA         CLEAR     47  34  60 S14       30.23F
PECOS          CLEAR     31  26  81 SW3       30.22F
PRESIDIO       FAIR      45  27  50 N8        30.28S
SEMINOLE       CLEAR     37  31  80 CALM      30.23S
SNYDER         CLEAR     36  32  84 SW9       30.22F WCI  29
WINK           PTCLDY    38  29  70 SE7       30.21F WCI  33
$$
...OTHER STATIONS IN TEXAS...

CITY           SKY/WX    TMP DP  RH WIND       PRES   REMARKS
ABILENE        CLEAR     48  33  56 S15G22    30.23F
AMARILLO       CLEAR     42  29  59 SW13      30.10F WCI  35
AUSTIN         CLEAR     34  33  96 CALM      30.34F
BROWNSVILLE    FOG       52  51  97 CALM      30.32S VSB 1/4
CORPUS CHRISTI PTCLDY    55  54  96 SE5       30.32S
DALLAS FTW     CLEAR     42  29  59 SE3       30.28F
DEL RIO        MOCLDY    45  41  86 E6        30.31F
EL PASO        PTCLDY    38  19  46 NE5       30.26F WCI  34
HOUSTON INT    CLEAR     41  39  93 CALM      30.38S
LUBBOCK        PTCLDY    43  30  60 SW15      30.17F WCI  36
SAN ANGELO     CLEAR     48  35  60 S15G22    30.25F
SAN ANTONIO    CLEAR     43  37  79 NW5       30.33F
WACO           CLEAR     36  32  85 S5        30.31F WCI  32
WICHITA FALLS  NOT AVBL
$$
...OTHER LOCATIONS IN NEW MEXICO...

CITY           SKY/WX    TMP DP  RH WIND       PRES   REMARKS
ALAMAGORDO     PTCLDY    34  18  51 CALM      30.27F
ALBUQUERQUE    PTCLDY    37  20  50 CALM      30.30F
CANNON AFB     CLOUDY    39  28  64 W8        30.17F WCI  33
CLOVIS         CLOUDY    43  27  52 W18       30.15F WCI  34
HOLLOMAN AFB   PTCLDY    33  19  55 CALM      30.27F
ROSWELL        PTCLDY    32  27  81 NW3       30.21F
RUIDOSO        CLEAR     41   7  24 W6        30.33F WCI  37
SANTA FE       CLEAR     29  17  61 E3        30.31F
TRUTH OR CONSE CLEAR     39  19  44 W7        30.28F WCI  34
TUCUMCARI      CLOUDY    48  24  39 W18       30.12F
$$



USA.gov is the U.S. government's official web portal to all federal, state and local government web resources and services.